Location: ??????
(55.6130°N, 37.7882°E)
Time: 13:50:35
(UTC+00:00)

Cosmos 1666 Rocket - Pass Details

Date: 14 April 2024
Orbit: 600 x 629 km, 82.5° (Epoch: 18 May)

Event Time Altitude Azimuth Distance (km) Brightness Sun altitude
Rises 01:28:08 0° 344° (NNW) 2,938 7.2 -8.3°
Reaches altitude 10° 01:30:26 10° 339° (NNW) 2,024 6.3 -8.0°
Maximum altitude 01:34:45 48° 266° (W) 833 3.9 -7.5°
Drops below altitude 10° 01:39:00 10° 192° (SSW) 2,000 5.8 -6.9°
Sets 01:41:16 0° 187° (S) 2,898 6.7 -6.7°
